Location: Newark
(45.3833°N, 11.3833°E)
Time: 04:03:28
(UTC+00:00)

ISS - Visible Passes

Search period start: 13 November 2019 00:00
Search period end: 23 November 2019 00:00
Orbit: 412 x 421 km, 51.6° (Epoch: 13 November)

Date Brightness Start Highest point End Pass type
(mag) Time Alt. Az. Time Alt. Az. Time Alt. Az.
13 Nov -1.5 04:48:31 13° SW 04:48:31 13° SW 04:50:01 10° SSW visible
14 Nov -1.0 04:02:37 11° S 04:02:37 11° S 04:02:48 10° S visible
20 Nov -1.2 17:28:29 10° SSE 17:28:51 11° SSE 17:28:51 11° SSE visible
21 Nov -1.0 18:14:57 10° SW 18:15:39 15° SW 18:15:39 15° SW visible
22 Nov -2.7 17:26:45 10° SSW 17:29:25 33° SSE 17:29:25 33° SSE visible
